TimeCST,TemperatureF,Dew PointF,Humidity,Sea Level PressureIn,VisibilityMPH,Wind Direction,Wind SpeedMPH,Gust SpeedMPH,PrecipitationIn,Events,Conditions,WindDirDegrees,DateUTC
12:53 AM,54.0,43.0,66,30.25,9.0,Calm,Calm,-,N/A,,Clear,0,2013-03-08 06:53:00
1:53 AM,52.0,43.0,71,30.24,8.0,Calm,Calm,-,N/A,,Clear,0,2013-03-08 07:53:00
2:53 AM,52.0,43.0,71,30.22,7.0,Calm,Calm,-,N/A,,Clear,0,2013-03-08 08:53:00
3:53 AM,54.0,45.0,72,30.23,9.0,Calm,Calm,-,N/A,,Clear,0,2013-03-08 09:53:00
4:53 AM,54.0,46.9,77,30.23,10.0,North,6.9,-,N/A,,Clear,360,2013-03-08 10:53:00
5:53 AM,55.9,48.9,77,30.25,5.0,NNE,11.5,-,N/A,,Haze,30,2013-03-08 11:53:00
6:53 AM,55.0,48.0,77,30.26,6.0,NE,10.4,-,N/A,,Haze,40,2013-03-08 12:53:00
7:53 AM,55.9,46.0,69,30.29,9.0,NE,9.2,-,N/A,,Clear,50,2013-03-08 13:53:00
8:53 AM,57.0,45.0,64,30.30,9.0,NE,4.6,-,N/A,,Clear,50,2013-03-08 14:53:00
9:53 AM,60.1,44.1,55,30.30,10.0,NNE,4.6,-,N/A,,Clear,20,2013-03-08 15:53:00
10:53 AM,64.0,46.9,54,30.30,8.0,NNE,8.1,-,N/A,,Clear,30,2013-03-08 16:53:00
11:53 AM,66.9,39.9,37,30.28,10.0,East,6.9,-,N/A,,Clear,80,2013-03-08 17:53:00
12:53 PM,68.0,39.0,35,30.25,10.0,East,6.9,-,N/A,,Clear,80,2013-03-08 18:53:00
1:53 PM,70.0,34.0,27,30.22,10.0,East,6.9,-,N/A,,Clear,90,2013-03-08 19:53:00
2:53 PM,71.1,35.1,27,30.21,10.0,East,5.8,-,N/A,,Clear,90,2013-03-08 20:53:00
3:53 PM,70.0,41.0,35,30.21,10.0,SE,8.1,-,N/A,,Clear,140,2013-03-08 21:53:00
4:53 PM,69.1,43.0,39,30.20,10.0,SE,9.2,-,N/A,,Clear,140,2013-03-08 22:53:00
5:53 PM,66.0,43.0,43,30.18,10.0,SSE,8.1,-,N/A,,Clear,150,2013-03-08 23:53:00
6:53 PM,64.0,42.1,45,30.18,10.0,SE,6.9,-,N/A,,Clear,140,2013-03-09 00:53:00
7:53 PM,62.1,42.1,48,30.19,10.0,SE,5.8,-,N/A,,Clear,130,2013-03-09 01:53:00
8:53 PM,61.0,42.1,50,30.20,10.0,South,4.6,-,N/A,,Clear,170,2013-03-09 02:53:00
9:53 PM,60.1,45.0,57,30.22,9.0,SSW,4.6,-,N/A,,Clear,200,2013-03-09 03:53:00
10:53 PM,60.1,44.1,55,30.20,9.0,Calm,Calm,-,N/A,,Clear,0,2013-03-09 04:53:00
11:53 PM,59.0,48.9,69,30.20,7.0,Calm,Calm,-,N/A,,Clear,0,2013-03-09 05:53:00